Regional Weather Roundup
Issued by NWS

Home | Current Version | Previous Version | Text Only | Print | Product List | Glossary On
Versions: 1 2 3 4 5 6 7 8 9 10 11 12 13 14 15 16 17 18 19 20 21 22 23 24 25 26 27 28 29 30 31 32 33 34 35 36 37 38 39 40 41 42 43 44 45 46 47 48 49 50
568
ASUS43 KDMX 230006
RWRIA

WEATHER ROUNDUP FOR IOWA
NATIONAL WEATHER SERVICE DES MOINES IA
700 PM CDT SAT APR 22 2017

NOTE: "FAIR" INDICATES FEW OR NO CLOUDS BELOW 12,000 FEET WITH NO
SIGNIFICANT WEATHER AND/OR OBSTRUCTIONS TO VISIBILITY.

* - THESE STATIONS ARE NOT NWS STATIONS...THUS NOT UNDER NWS
QUALITY CONTROL.  THEY ALSO DO NOT REPORT WEATHER SUCH
AS PRECIPITATION OR FOG.

IAZ001>003-012>014-020>022-031>034-043>046-230100-
   NORTHWEST IOWA

CITY           SKY/WX    TMP DP  RH WIND       PRES   REMARKS
CARROLL *      SUNNY     64  30  27 NE8       30.17F
CHEROKEE *     SUNNY     64  35  34 CALM      30.18S
DENISON *      SUNNY     64  32  29 VRB6      30.19F
LE MARS *      SUNNY     66  32  28 CALM      30.19F
ORANGE CITY *  SUNNY     64  36  34 CALM      30.18F
SHELDON *      SUNNY     66  30  26 NW6       30.16F
SIOUX CITY     SUNNY     67  32  27 CALM      30.18F
6HR MIN TEMP:  62; 6HR MAX TEMP:  68;

SPENCER        SUNNY     66  35  31 NW7       30.17F
6HR MIN TEMP:  62; 6HR MAX TEMP:  68;

STORM LAKE *   SUNNY     64  30  27 N7        30.18S
$$

IAZ055>058-069>071-079>083-090>094-230100-
   SOUTHWEST IOWA

CITY           SKY/WX    TMP DP  RH WIND       PRES   REMARKS
ATLANTIC *     SUNNY     64  28  25 NE8       30.17S
AUDUBON *      SUNNY     64  19  17 N8        30.19S
CLARINDA *     SUNNY     66  32  28 NE12      30.18S
COUNCIL BLFS * SUNNY     63  32  31 NE9       30.18S
CRESTON *      SUNNY     63  28  27 NE9G16    30.17S
HARLAN  *      SUNNY     64  30  27 NE8       30.21S
LAMONI         CLOUDY    61  30  31 NE10      30.15S
6HR MIN TEMP:  60; 6HR MAX TEMP:  65;

RED OAK *      SUNNY     63  32  31 NE10      30.17S
SHENANDOAH *   SUNNY     66  28  24 NE14      30.17S
$$

IAZ047>049-059>061-072>074-084-230100-
   CENTRAL IOWA

CITY           SKY/WX    TMP DP  RH WIND       PRES   REMARKS
AMES           SUNNY     65  29  25 NE7       30.16F
6HR MIN TEMP:  62; 6HR MAX TEMP:  67;

ANKENY *       SUNNY     64  28  25 NE8G14    30.17F
BOONE *        SUNNY     64  32  29 NE8       30.16S
CHARITON *     CLOUDY    61  28  29 N13       30.15S
DES MOINES     MOSUNNY   66  26  22 N10       30.16S
6HR MIN TEMP:  64; 6HR MAX TEMP:  68;

GRINNELL*      SUNNY     63  24  23 N9        30.17S
KNOXVILLE *    SUNNY     63  23  22 NE10      30.15R
MARSHALLTOWN   SUNNY     64  27  24 NE5       30.16S
6HR MIN TEMP:  60; 6HR MAX TEMP:  66;

NEWTON *       SUNNY     63  27  25 NE9G15    30.15S
PELLA *        SUNNY     63  27  25 NE5       30.16S
PERRY *          N/A     65  25  21 NE7       30.17S
$$

IAZ004>006-015-016-023>025-035-036-230100-
   NORTH CENTRAL IOWA

CITY           SKY/WX    TMP DP  RH WIND       PRES   REMARKS
ALGONA *       SUNNY     66  32  28 N5        30.17S
CLARION *      SUNNY     66  27  22 CALM      30.17S
ESTHERVILLE    SUNNY     65  33  30 W5        30.16F
6HR MIN TEMP:  61; 6HR MAX TEMP:  66;

FORT DODGE *   SUNNY     64  30  27 NW5       30.18S
MASON CITY     SUNNY     65  29  25 CALM      30.17F
6HR MIN TEMP:  62; 6HR MAX TEMP:  67;

FOREST CITY *    N/A     68  32  26 CALM      30.16S
WEBSTER CITY * SUNNY     64  30  27 N6        30.15S
IOWA FALLS *     N/A     65  29  26 N6        30.18S
$$

IAZ007>011-017>019-026>030-037>042-050>054-066-230100-
   NORTHEAST IOWA

CITY           SKY/WX    TMP DP  RH WIND       PRES   REMARKS
CEDAR RAPIDS   CLEAR     61  29  29 NE8       30.15S
6HR MIN TEMP:  59; 6HR MAX TEMP:  65;

CHARLES CITY * SUNNY     64  30  27 W6        30.17S
CLINTON *      CLEAR     61  34  36 NE9       30.15F
DECORAH *      CLEAR     63  27  25 NW6       30.15S
DUBUQUE        CLEAR     60  31  33 NE5       30.16S
6HR MIN TEMP:  58; 6HR MAX TEMP:  63;

MONTICELLO *   CLEAR     61  30  31 NE7       30.16S
OELWEIN *      CLEAR     63  25  23 CALM      30.17S
WATERLOO       CLEAR     63  31  30 N6        30.16S
6HR MIN TEMP:  61; 6HR MAX TEMP:  67;

$$

IAZ064-065-067-068-078-230100-
   EAST CENTRAL IOWA

CITY           SKY/WX    TMP DP  RH WIND       PRES   REMARKS
DAVENPORT      CLEAR     61  30  31 NE15      30.15S
6HR MIN TEMP:  58; 6HR MAX TEMP:  64;

IOWA CITY      CLEAR     63  29  27 NE12      30.16S
6HR MIN TEMP:  61; 6HR MAX TEMP:  66;

MT. PLEASANT * CLOUDY    62  28  28 NE10      30.14S
MUSCATINE *    CLEAR     63  32  31 NE9       30.15S
QUAD CITIES    CLEAR     62  30  29 NE9       30.14S
6HR MIN TEMP:  59; 6HR MAX TEMP:  65;

$$

IAZ062-063-075>077-085>089-095>099-230100-
   SOUTHEAST IOWA

CITY           SKY/WX    TMP DP  RH WIND       PRES   REMARKS
BURLINGTON     CLOUDY    61  35  37 NE10      30.12S
6HR MIN TEMP:  59; 6HR MAX TEMP:  64;

FAIRFIELD *    CLOUDY    61  30  31 NE9G15    30.14S
FORT MADISON * CLOUDY    61  34  36 NE8       30.13S
KEOKUK *       MOCLDY    61  34  36 NE7       30.11S
OSKALOOSA *      N/A     62  27  26 NE9       30.15S
CENTERVILLE *    N/A     59  30  33 NE6       30.16R
OTTUMWA        CLOUDY    62  28  27 NE9       30.15S
6HR MIN TEMP:  61; 6HR MAX TEMP:  66;

WASHINGTON *   CLEAR     63  30  29 NE10G16   30.16S
$$

ABBREVIATIONS USED IN REMARKS
   TC - TEMPERATURES IN CELSIUS
  WCI - WIND CHILL INDEX
   HX - HEAT INDEX
  VSB - VISIBILITY
$$





USA.gov is the U.S. government's official web portal to all federal, state and local government web resources and services.